ATLAS 5 CENTAUR R/B, 35816

Orbit data source: Space-Track

ATLAS 5 CENTAUR R/B, 35816 is space debris in HEO originally from a launch on Tue, 08 Sep 2009 UTC launched from the Air Force Eastern Test Range (AFETR). Debris objects in space refer to the collection of defunct objects orbiting the Earth. Examples of debris include non-operational satellites, rocket bodies, and fragments generated from explosions, collisions, or faulty payload assembly.

Loading next visibility...
Identifier
35816, 2009-047B
Orbit
HEO
Country
Flag of USUS
Related business
Flag of USUnited Launch Alliance/Lockheed Martin (US)
Manufacturer
LMSS Denver
Mission
Spacecraft
Bus & Motor
CENTAUR SEC, RL10-4A-2
Mass
~2,020 kg wet, 2,020 kg dry
Launch date (UTC)
2009-09-08 (17 years ago)
Launch vehicle
Unknown
Launch site
Air Force Eastern Test Range (AFETR)
Object type
Payload
Rocket body
Debris
Shape & HBR
Cyl + 1 Nozzle, 5.8 m
Radar Cross Section
32.260 m², Large (>1 m²)

Expand to show TLE details & history
Last TLE update: 6 days ago

TLE from 6 days ago
0 ATLAS 5 CENTAUR R/B
1 35816U 09047B   26167.35338574 -.00000188  00000-0  00000-0 0  9991
2 35816  22.4834 194.4124 5210010 264.6175  36.5792  1.94977715 51315
Epoch: 2026-06-16T08:28Z
TLE epoch observation values (Epoch: 2026-06-16T08:28:52.527Z)
Latitude
-0.00001°
Longitude
162.62255°
Altitude
14,354.692 km
Speed
4.871 km/s
True Right ascension
12h 57m 52s
True Declination
0° 00' 00"
Sunlit
Object was in daylight at epoch
Visualization orbit readout
Latitude
Unknown
Longitude
Unknown
Altitude
Unknown
Speed
Unknown
Apparent Right ascension
Unknown
Apparent Declination
Unknown
Sunlit
N/A
Visualization observer readout
Local Sidereal Time
23:08:28
Azimuth
Unknown
Elevation
Unknown
Doppler factor
Unknown
Orbital elements
Apogee altitude
34,791.25 km
Perigee altitude
6,587.072 km
Semi-major axis
27,067.298 km
Eccentricity
0.521
Inclination
22.4834°
RAAN
194.4124°
Arg. of periapsis
264.6175°
True anomaly
95.29361°
Mean anomaly
36.5792°
Eccentric anomaly
63.23126°
Mean motion
0.48739 °/min
Orbital period
738.63 mins
BSTAR
0
Loading maneuver chart data...
Computing Atmospheric mass density...
Loading historical data...
Loading historical data...
Loading historical data...
Loading historical data...
Loading historical data...
Loading historical data...
Loading historical data...
Other satellites on launch #47 in the year 2009 (2009-09-08 UTC)

Documentation

Showing up to 5 results
|